Flag for Angola Weather past 2 weeks in Huambo, Angola

Now
88 °F

Passing clouds.


Feels Like: 93 °F
Forecast: 58 / 74 °F
Wind: 14 mph from West

Location: Luanda Airport

Current Time: Jan 30, 2015 at 3:53:24 PM

Latest Report: Jan 30, 2015 at 3:00 PM


Visibility: N/A

Pressure: 29.83 "Hg

Humidity: 55%

Dew point: 70 °F

Location of HuamboLocation

Historic Weather in Huambo — Graph

°F

Huambo temperature yesterday

Maximum temperature yesterday: 88 °F (at 11:00 AM)
Minimum temperature yesterday: 77 °F (at 3:00 AM)
Average temperature yesterday: 82 °F

Past Weeks' High & Low Weather Summary

 TemperatureHumidityPressure
High90 °F (Jan 20, 3:00 PM)94% (Jan 19, 8:00 AM)30.15 "Hg (Jan 19, 8:00 AM)
Low61 °F (Jan 19, 8:00 AM)49% (Jan 20, 11:00 AM)29.77 "Hg (Jan 24, 5:00 PM)
Average82 °F73%29.88 "Hg
* Reported Jan 15 1:00 PM — Jan 30 1:00 PM, Huambo, Weather by CustomWeather, © 2014

Note: Actual official high and low records may vary slightly from our data, if they occured in-between our weather recording intervals... More about our weather records

Advertising

Huambo weather history for previous 24 hours

 ConditionsComfort  
Time TempWeatherWind HumidityBarometerVisibility
1:00 PM
Jan 30
88 °FScattered clouds.12 mph62%29.86 "HgN/A
12:00 PM88 °FScattered clouds.9 mph59%29.89 "HgN/A
11:00 AM90 °FScattered clouds.7 mph52%29.89 "HgN/A
10:00 AM90 °FScattered clouds.3 mph55%29.89 "HgN/A
9:00 AM84 °FPartly sunny.3 mph70%29.89 "HgN/A
8:00 AM81 °FPartly sunny.6 mph79%29.89 "HgN/A
7:00 AM79 °FScattered clouds.5 mph84%29.86 "HgN/A
6:00 AM77 °FPassing clouds.6 mph89%29.86 "HgN/A
5:00 AM79 °FPassing clouds.7 mph84%29.86 "HgN/A
4:00 AM79 °FPassing clouds.3 mph84%29.86 "HgN/A
3:00 AM79 °FPassing clouds.3 mph84%29.86 "HgN/A
2:00 AM81 °FPassing clouds.5 mph79%29.86 "HgN/A
1:00 AM81 °FPassing clouds.7 mph79%29.89 "HgN/A
12:00 AM81 °FPassing clouds.9 mph79%29.89 "HgN/A
11:00 PM
Jan 29
81 °FPassing clouds.7 mph79%29.89 "HgN/A
10:00 PM81 °FPassing clouds.9 mph79%29.89 "HgN/A
8:00 PM82 °FPassing clouds.8 mph70%29.83 "Hg5 mi
6:00 PM84 °FPartly sunny.10 mph66%29.80 "HgN/A
5:00 PM84 °FPartly sunny.9 mph70%29.80 "HgN/A
4:00 PM86 °FPartly sunny.9 mph62%29.80 "HgN/A
3:00 PM88 °FPartly sunny.9 mph62%29.83 "HgN/A
Weather by CustomWeather, © 2014

See weather overviewHow to use our weather pages